This demonstration page uses our WeatherBlox Daily Observations layout. Learn more.

Left ArrowRight Arrow

Hourly Observations for September 12, 2020

Temp ( °F °C ) Dew Point ( °F °C ) Humidity (%) Winds ( mph kmh ) Pressure ( in mb ) Visibility ( mi km ) Precip ( " mm )
12:15 am 00:15 Cloudy 54 12.2 53 11.5 96 96 SSE 9 15 29.98 1015 10 16 N/A
12:35 am 00:35 Cloudy 54 12.3 53 11.5 95 95 S 10 17 29.98 1015 10 16 N/A
12:55 am 00:55 Cloudy 54 12.2 53 11.5 96 96 SSE 12 19 29.97 1015 10 16 N/A
1:15 am 01:15 Cloudy 54 12.3 53 11.6 96 96 S 12 19 29.97 1015 7 11 N/A
1:35 am 01:35 Cloudy 54 12.4 53 11.7 96 96 S 12 19 29.97 1015 7 11 N/A
1:55 am 01:55 Cloudy 55 12.6 54 12 96 96 S 10 17 29.96 1015 7 11 N/A
2:15 am 02:15 Cloudy 55 12.7 54 12 96 96 S 10 17 29.96 1015 7 11 N/A
2:35 am 02:35 Cloudy 55 12.7 54 12 96 96 S 12 19 29.95 1014 7 11 N/A
2:55 am 02:55 Cloudy 55 12.8 54 12.1 96 96 SSW 15 24 29.95 1014 7 11 N/A
3:15 am 03:15 Cloudy 55 13 54 12.3 96 96 SSW 9 15 29.95 1014 10 16 N/A
3:35 am 03:35 Cloudy 56 13.1 54 12.3 95 95 SSW 7 11 29.95 1014 10 16 N/A
3:55 am 03:55 Cloudy 55 13 54 12.2 95 95 SW 8 13 29.94 1014 7 11 N/A
4:15 am 04:15 Cloudy 55 13 54 12.1 94 94 SW 7 11 29.94 1014 7 11 N/A
4:35 am 04:35 Cloudy 55 12.7 54 12 96 96 SW 9 15 29.93 1014 7 11 N/A
4:55 am 04:55 Cloudy 55 12.7 54 12.1 96 96 SW 6 9 29.93 1014 7 11 N/A
5:15 am 05:15 Cloudy 55 12.6 54 12 96 96 WSW 6 9 29.91 1013 7 11 N/A
5:35 am 05:35 Cloudy 55 12.5 54 12 97 97 SW 6 9 29.93 1014 7 11 N/A
5:55 am 05:55 Mostly Cloudy 54 12.2 53 11.6 96 96 SW 7 11 29.92 1013 7 11 N/A
6:15 am 06:15 Partly Cloudy with Mist and Fog 53 11.5 52 10.9 96 96 WSW 3 6 29.93 1014 5 8 N/A
6:35 am 06:35 Clear with Mist and Fog 52 11.1 51 10.5 96 96 WSW 3 6 29.93 1014 5 8 N/A
6:55 am 06:55 Clear with Mist and Fog 51 10.6 50 10.1 97 97 WSW 6 9 29.94 1014 4 6 N/A
7:15 am 07:15 Clear with Mist and Fog 51 10.7 50 10.2 97 97 WSW 3 6 29.94 1014 5 8 N/A
7:35 am 07:35 Sunny with Mist and Fog 50 10.2 49 9.7 97 97 WSW 5 7 29.96 1015 3 5 N/A
7:55 am 07:55 Sunny with Mist and Fog 51 10.7 51 10.3 97 97 WSW 3 6 29.99 1015 5 8 N/A
8:15 am 08:15 Sunny 52 11.1 51 10.7 97 97 N N/A 29.98 1015 7 11 N/A
8:35 am 08:35 Sunny 52 11.3 51 10.8 97 97 N N/A 29.97 1015 7 11 N/A
8:55 am 08:55 Sunny 55 12.5 52 11.1 91 91 NW 6 9 29.97 1015 10 16 N/A
9:15 am 09:15 Sunny 57 13.9 51 10.5 80 80 NW 6 9 29.97 1015 10 16 N/A
9:35 am 09:35 Sunny 59 15 49 9.6 70 70 NW 8 13 29.95 1014 10 16 N/A
9:55 am 09:55 Sunny 60 15.6 50 9.8 69 69 NW 10 17 29.94 1014 10 16 N/A
10:15 am 10:15 Sunny 61 16.3 50 10 66 66 WNW 7 11 29.95 1014 10 16 N/A
10:35 am 10:35 Sunny 63 17.3 50 9.8 62 62 NW 9 15 29.94 1014 10 16 N/A
10:55 am 10:55 Sunny 64 17.8 49 9.7 59 59 WNW 9 15 29.95 1014 10 16 N/A
11:15 am 11:15 Sunny 65 18.4 50 10 58 58 NW 9 15 29.94 1014 10 16 N/A
11:35 am 11:35 Sunny 66 19 50 10.1 56 56 WNW 9 15 29.94 1014 10 16 N/A
11:55 am 11:55 Sunny 67 19.7 50 9.9 53 53 NW 13 20 29.93 1014 10 16 N/A
12:15 pm 12:15 Sunny 69 20.3 49 9.6 50 50 NW 12 19 29.92 1013 10 16 N/A
12:35 pm 12:35 Sunny 69 20.5 49 9.5 49 49 NW 14 22 29.91 1013 10 16 N/A
12:55 pm 12:55 Sunny 69 20.8 49 9.6 49 49 NW 13 20 29.91 1013 10 16 N/A
1:15 pm 13:15 Sunny 70 21.3 50 9.9 48 48 WNW 14 22 29.90 1012 10 16 N/A
1:35 pm 13:35 Partly Cloudy 72 22.1 50 10.2 47 47 NW 10 17 29.88 1012 10 16 N/A
1:55 pm 13:55 Partly Cloudy 70 21.3 49 9.7 48 48 NW 9 15 29.88 1012 10 16 N/A
2:15 pm 14:15 Partly Cloudy 72 22.2 48 9 43 43 NW 14 22 29.89 1012 10 16 N/A
2:35 pm 14:35 Sunny 74 23.1 48 8.7 40 40 NW 12 19 29.87 1012 10 16 N/A
2:55 pm 14:55 Mostly Cloudy 74 23.1 46 7.7 37 37 NNW 13 20 29.86 1011 10 16 N/A
3:15 pm 15:15 Partly Cloudy 74 23.3 46 7.6 37 37 NNW 8 13 29.88 1012 10 16 N/A
3:35 pm 15:35 Sunny 74 23.5 45 7 35 35 NNW 9 15 29.87 1011 10 16 N/A
3:55 pm 15:55 Sunny 74 23.6 45 7 34 34 NW 9 15 29.87 1011 10 16 N/A
4:15 pm 16:15 Sunny 75 23.7 46 7.7 36 36 N 6 9 29.88 1012 10 16 N/A
4:35 pm 16:35 Sunny 74 23.6 45 7 34 34 NW 7 11 29.87 1011 10 16 N/A
4:55 pm 16:55 Sunny 74 23.6 45 7.4 35 35 N 7 11 29.88 1012 10 16 N/A
5:15 pm 17:15 Sunny 74 23.6 45 7.1 35 35 NNW 9 15 29.88 1012 10 16 N/A
5:35 pm 17:35 Sunny 74 23.5 45 7.2 35 35 NNW 9 15 29.88 1012 10 16 N/A
5:55 pm 17:55 Sunny 74 23.4 45 7.4 36 36 NNW 8 13 29.88 1012 10 16 N/A
6:15 pm 18:15 Sunny 74 23.1 46 7.8 38 38 NNW 3 6 29.89 1012 10 16 N/A
6:35 pm 18:35 Sunny 73 22.8 47 8.4 40 40 NNW 6 9 29.89 1012 10 16 N/A
6:55 pm 18:55 Sunny 72 22.3 48 9.1 43 43 NW 3 6 29.91 1013 10 16 N/A
7:15 pm 19:15 Sunny 71 21.6 49 9.6 46 46 NW 3 6 29.91 1013 10 16 N/A
7:35 pm 19:35 Sunny 69 20.8 50 10 50 50 N N/A 29.92 1013 10 16 N/A
7:55 pm 19:55 Clear 67 19.4 51 10.6 57 57 N N/A 29.94 1014 10 16 N/A
8:15 pm 20:15 Hazy 64 17.5 53 11.8 69 69 N N/A 29.96 1014 4 6 N/A
8:35 pm 20:35 Clear 62 16.6 52 11 70 70 N N/A 29.97 1015 10 16 N/A
8:55 pm 20:55 Clear 61 16 53 11.6 75 75 N N/A 29.98 1015 10 16 N/A
9:15 pm 21:15 Clear 60 15.6 53 11.4 76 76 N N/A 29.99 1016 10 16 N/A
9:35 pm 21:35 Clear 58 14.5 53 11.4 82 82 SW 3 6 30.01 1016 10 16 N/A
9:55 pm 21:55 Clear 58 14.5 52 11 80 80 N N/A 30.02 1017 10 16 N/A
10:15 pm 22:15 Clear 57 14 52 11.2 83 83 N N/A 30.03 1017 10 16 N/A
10:35 pm 22:35 Clear 56 13.4 52 11 86 86 N N/A 30.03 1017 10 16 N/A
10:55 pm 22:55 Clear 54 12.4 50 10.1 86 86 N N/A 30.04 1017 10 16 N/A
11:15 pm 23:15 Clear 55 12.6 51 10.3 86 86 N N/A 30.05 1018 10 16 N/A
11:35 pm 23:35 Clear 54 12.3 51 10.3 88 88 N N/A 30.05 1018 10 16 N/A
11:55 pm 23:55 Clear 54 12.3 50 10.1 87 87 N N/A 30.05 1018 10 16 N/A

Powered by AerisWeather